Time,TemperatureF,DewpointF,PressureIn,WindDirection,WindDirectionDegrees,WindSpeedMPH,WindSpeedGustMPH,Humidity,HourlyPrecipIn,Conditions,Clouds,dailyrainin,SoftwareType,DateUTC
2013-01-22 00:02:00,23.0,21.0,28.43,NW,316,0.0,4.0,91,0.00,,,0.00,,2013-01-22 08:02:00,
2013-01-22 00:11:00,23.0,21.0,28.43,NW,316,0.0,4.0,91,0.00,,,0.00,,2013-01-22 08:11:00,
2013-01-22 00:22:00,23.0,21.0,28.43,NW,316,0.0,4.0,91,0.00,,,0.00,,2013-01-22 08:22:00,
2013-01-22 00:32:00,22.0,20.0,28.41,WNW,299,0.0,2.0,91,0.00,,,0.00,,2013-01-22 08:32:00,
2013-01-22 00:43:00,22.0,20.0,28.41,WNW,299,0.0,2.0,91,0.00,,,0.00,,2013-01-22 08:43:00,
2013-01-22 00:52:00,23.0,21.0,28.36,North,5,0.0,2.0,91,0.00,,,0.00,,2013-01-22 08:52:00,
2013-01-22 01:02:00,22.0,20.0,28.41,NW,321,0.0,1.0,91,0.00,,,0.00,,2013-01-22 09:02:00,
2013-01-22 01:11:00,22.0,20.0,28.41,NW,321,0.0,1.0,91,0.00,,,0.00,,2013-01-22 09:11:00,
2013-01-22 01:22:00,22.0,20.0,28.42,NNW,342,0.0,2.0,91,0.00,,,0.00,,2013-01-22 09:22:00,
2013-01-22 01:32:00,22.0,20.0,28.42,ENE,61,0.0,3.0,92,0.00,,,0.00,,2013-01-22 09:32:00,
2013-01-22 01:42:00,22.0,20.0,28.42,ENE,61,0.0,3.0,92,0.00,,,0.00,,2013-01-22 09:42:00,
2013-01-22 01:52:00,22.0,20.0,28.42,ENE,61,0.0,3.0,92,0.00,,,0.00,,2013-01-22 09:52:00,
2013-01-22 02:02:00,21.0,19.0,28.42,ENE,71,1.0,3.0,91,0.00,,,0.00,,2013-01-22 10:02:00,
2013-01-22 02:11:00,21.0,19.0,28.42,ENE,71,1.0,3.0,91,0.00,,,0.00,,2013-01-22 10:11:00,
2013-01-22 02:22:00,21.0,19.0,28.42,North,349,1.0,2.0,91,0.00,,,0.00,,2013-01-22 10:22:00,
2013-01-22 02:32:00,21.0,19.0,28.42,NNW,332,0.0,2.0,91,0.00,,,0.00,,2013-01-22 10:32:00,
2013-01-22 02:42:00,21.0,19.0,28.42,NNW,332,0.0,2.0,91,0.00,,,0.00,,2013-01-22 10:42:00,
2013-01-22 02:52:00,21.0,19.0,28.42,NNE,18,0.0,2.0,91,0.00,,,0.00,,2013-01-22 10:52:00,
2013-01-22 03:02:00,21.0,19.0,28.42,North,349,0.0,1.0,91,0.00,,,0.00,,2013-01-22 11:02:00,
2013-01-22 03:12:00,21.0,19.0,28.42,North,349,0.0,1.0,91,0.00,,,0.00,,2013-01-22 11:12:00,
2013-01-22 03:22:00,21.0,19.0,28.41,ENE,68,0.0,2.0,91,0.00,,,0.00,,2013-01-22 11:22:00,
2013-01-22 03:32:00,21.0,19.0,28.40,ENE,68,1.0,3.0,91,0.00,,,0.00,,2013-01-22 11:32:00,
2013-01-22 03:42:00,21.0,19.0,28.40,ENE,68,1.0,3.0,91,0.00,,,0.00,,2013-01-22 11:42:00,
2013-01-22 03:53:00,21.0,19.0,28.41,ENE,62,0.0,3.0,91,0.00,,,0.00,,2013-01-22 11:53:00,
2013-01-22 04:02:00,21.0,19.0,28.40,NNE,27,0.0,1.0,91,0.00,,,0.00,,2013-01-22 12:02:00,
2013-01-22 04:12:00,21.0,19.0,28.40,NNE,27,0.0,1.0,91,0.00,,,0.00,,2013-01-22 12:12:00,
2013-01-22 04:22:00,21.0,19.0,28.40,ENE,71,0.0,2.0,91,0.00,,,0.00,,2013-01-22 12:22:00,
2013-01-22 04:32:00,21.0,19.0,28.40,ENE,71,0.0,2.0,91,0.00,,,0.00,,2013-01-22 12:32:00,
2013-01-22 04:42:00,21.0,19.0,28.40,East,79,0.0,2.0,90,0.00,,,0.00,,2013-01-22 12:42:00,
2013-01-22 04:52:00,21.0,19.0,28.39,East,90,0.0,1.0,90,0.00,,,0.00,,2013-01-22 12:52:00,
2013-01-22 05:03:00,21.0,19.0,28.39,East,97,0.0,1.0,90,0.00,,,0.00,,2013-01-22 13:03:00,
2013-01-22 05:12:00,21.0,19.0,28.39,East,97,0.0,1.0,90,0.00,,,0.00,,2013-01-22 13:12:00,
2013-01-22 05:23:00,21.0,18.0,28.40,East,91,0.0,1.0,89,0.00,,,0.00,,2013-01-22 13:23:00,
2013-01-22 05:33:00,21.0,18.0,28.40,East,91,0.0,1.0,89,0.00,,,0.00,,2013-01-22 13:33:00,
2013-01-22 05:42:00,21.0,18.0,28.40,East,91,0.0,1.0,89,0.00,,,0.00,,2013-01-22 13:42:00,
2013-01-22 05:52:00,21.0,18.0,28.39,ESE,108,0.0,1.0,89,0.00,,,0.00,,2013-01-22 13:52:00,
2013-01-22 06:03:00,21.0,18.0,28.39,ESE,108,0.0,1.0,89,0.00,,,0.00,,2013-01-22 14:03:00,
2013-01-22 06:12:00,21.0,18.0,28.39,ESE,108,0.0,1.0,89,0.00,,,0.00,,2013-01-22 14:12:00,
2013-01-22 06:22:00,21.0,18.0,28.38,NNW,345,0.0,2.0,89,0.00,,,0.00,,2013-01-22 14:22:00,
2013-01-22 06:33:00,21.0,18.0,28.38,East,83,0.0,2.0,89,0.00,,,0.00,,2013-01-22 14:33:00,
2013-01-22 06:43:00,21.0,18.0,28.38,East,83,0.0,2.0,89,0.00,,,0.00,,2013-01-22 14:43:00,
2013-01-22 06:53:00,21.0,18.0,28.38,ENE,72,0.0,1.0,89,0.00,,,0.00,,2013-01-22 14:53:00,
2013-01-22 07:03:00,21.0,18.0,28.38,ENE,72,0.0,1.0,89,0.00,,,0.00,,2013-01-22 15:03:00,
2013-01-22 07:12:00,21.0,18.0,28.38,ENE,72,0.0,1.0,89,0.00,,,0.00,,2013-01-22 15:12:00,
2013-01-22 07:23:00,21.0,18.0,28.38,NE,47,0.0,1.0,88,0.00,,,0.00,,2013-01-22 15:23:00,
2013-01-22 07:33:00,21.0,18.0,28.38,East,88,0.0,1.0,88,0.00,,,0.00,,2013-01-22 15:33:00,
2013-01-22 07:43:00,21.0,18.0,28.38,East,88,0.0,1.0,88,0.00,,,0.00,,2013-01-22 15:43:00,
2013-01-22 07:52:00,21.0,18.0,28.38,ESE,111,0.0,1.0,88,0.00,,,0.00,,2013-01-22 15:52:00,
2013-01-22 08:03:00,21.0,18.0,28.38,East,86,0.0,1.0,88,0.00,,,0.00,,2013-01-22 16:03:00,
2013-01-22 08:12:00,21.0,18.0,28.38,East,86,0.0,1.0,88,0.00,,,0.00,,2013-01-22 16:12:00,
2013-01-22 08:23:00,21.0,18.0,28.39,NW,321,0.0,1.0,89,0.00,,,0.00,,2013-01-22 16:23:00,
2013-01-22 08:33:00,21.0,18.0,28.39,NNW,338,0.0,2.0,89,0.00,,,0.00,,2013-01-22 16:33:00,
2013-01-22 08:42:00,21.0,18.0,28.39,NNW,338,0.0,2.0,89,0.00,,,0.00,,2013-01-22 16:42:00,
2013-01-22 08:53:00,21.0,18.0,28.39,NNE,22,0.0,2.0,89,0.00,,,0.00,,2013-01-22 16:53:00,
2013-01-22 09:03:00,21.0,18.0,28.40,NNE,27,0.0,1.0,89,0.00,,,0.00,,2013-01-22 17:03:00,
2013-01-22 09:12:00,21.0,18.0,28.40,NNE,27,0.0,1.0,89,0.00,,,0.00,,2013-01-22 17:12:00,
2013-01-22 09:22:00,21.0,18.0,28.39,NE,47,0.0,1.0,89,0.00,,,0.00,,2013-01-22 17:22:00,
2013-01-22 09:33:00,21.0,18.0,28.39,WNW,284,0.0,1.0,88,0.00,,,0.00,,2013-01-22 17:33:00,
2013-01-22 09:43:00,21.0,18.0,28.39,WNW,284,0.0,1.0,88,0.00,,,0.00,,2013-01-22 17:43:00,
2013-01-22 09:53:00,22.0,19.0,28.39,NNE,25,0.0,1.0,88,0.00,,,0.00,,2013-01-22 17:53:00,
2013-01-22 10:03:00,22.0,19.0,28.39,NNW,332,0.0,2.0,88,0.00,,,0.00,,2013-01-22 18:03:00,
2013-01-22 10:12:00,22.0,19.0,28.39,NNW,332,0.0,2.0,88,0.00,,,0.00,,2013-01-22 18:12:00,
2013-01-22 10:23:00,22.0,19.0,28.39,NNE,25,0.0,1.0,87,0.00,,,0.00,,2013-01-22 18:23:00,
2013-01-22 10:33:00,22.0,19.0,28.40,NNE,23,0.0,1.0,87,0.00,,,0.00,,2013-01-22 18:33:00,
2013-01-22 10:42:00,22.0,19.0,28.40,NNE,23,0.0,1.0,87,0.00,,,0.00,,2013-01-22 18:42:00,
2013-01-22 10:53:00,22.0,19.0,28.40,NNE,32,1.0,3.0,89,0.00,,,0.00,,2013-01-22 18:53:00,
2013-01-22 11:03:00,22.0,19.0,28.40,NW,307,1.0,2.0,89,0.00,,,0.00,,2013-01-22 19:03:00,
2013-01-22 11:12:00,22.0,19.0,28.40,NW,307,1.0,2.0,89,0.00,,,0.00,,2013-01-22 19:12:00,
2013-01-22 11:22:00,22.0,19.0,28.40,NW,307,1.0,2.0,89,0.00,,,0.00,,2013-01-22 19:22:00,
2013-01-22 11:33:00,22.0,19.0,28.39,WNW,301,1.0,4.0,87,0.00,,,0.00,,2013-01-22 19:33:00,
2013-01-22 11:42:00,22.0,19.0,28.39,WNW,301,1.0,4.0,87,0.00,,,0.00,,2013-01-22 19:42:00,
2013-01-22 11:54:00,22.0,19.0,28.38,NW,305,0.0,3.0,87,0.00,,,0.00,,2013-01-22 19:54:00,
2013-01-22 12:03:00,23.0,20.0,28.38,NNE,13,0.0,3.0,87,0.00,,,0.00,,2013-01-22 20:03:00,
2013-01-22 12:12:00,23.0,20.0,28.38,NNE,13,0.0,3.0,87,0.00,,,0.00,,2013-01-22 20:12:00,
2013-01-22 12:22:00,23.0,19.0,28.38,NNW,327,2.0,4.0,86,0.00,,,0.00,,2013-01-22 20:22:00,
2013-01-22 12:33:00,23.0,20.0,28.38,WNW,298,0.0,2.0,87,0.00,,,0.00,,2013-01-22 20:33:00,
2013-01-22 12:42:00,23.0,20.0,28.38,WNW,298,0.0,2.0,87,0.00,,,0.00,,2013-01-22 20:42:00,
2013-01-22 12:53:00,23.0,20.0,28.38,WNW,298,0.0,2.0,87,0.00,,,0.00,,2013-01-22 20:53:00,
2013-01-22 13:03:00,24.0,20.0,28.35,North,349,0.0,3.0,86,0.00,,,0.00,,2013-01-22 21:03:00,
2013-01-22 13:12:00,24.0,20.0,28.35,North,349,0.0,3.0,86,0.00,,,0.00,,2013-01-22 21:12:00,
2013-01-22 13:22:00,24.0,20.0,28.35,NNW,338,0.0,2.0,85,0.00,,,0.00,,2013-01-22 21:22:00,
2013-01-22 13:33:00,24.0,20.0,28.34,NW,323,1.0,3.0,86,0.00,,,0.00,,2013-01-22 21:33:00,
2013-01-22 13:42:00,24.0,20.0,28.34,NW,323,1.0,3.0,86,0.00,,,0.00,,2013-01-22 21:42:00,
2013-01-22 13:52:00,24.0,20.0,28.34,North,1,0.0,2.0,86,0.00,,,0.00,,2013-01-22 21:52:00,
2013-01-22 14:02:00,24.0,20.0,28.33,WSW,253,0.0,1.0,86,0.00,,,0.00,,2013-01-22 22:02:00,
2013-01-22 14:12:00,24.0,20.0,28.33,WSW,253,0.0,1.0,86,0.00,,,0.00,,2013-01-22 22:12:00,
2013-01-22 14:22:00,24.0,20.0,28.33,ESE,105,0.0,2.0,85,0.00,,,0.00,,2013-01-22 22:22:00,
2013-01-22 14:32:00,24.0,20.0,28.33,ESE,105,0.0,2.0,85,0.00,,,0.00,,2013-01-22 22:32:00,
2013-01-22 14:42:00,24.0,20.0,28.33,East,83,0.0,1.0,85,0.00,,,0.00,,2013-01-22 22:42:00,
2013-01-22 14:52:00,24.0,20.0,28.33,NW,326,0.0,2.0,84,0.00,,,0.00,,2013-01-22 22:52:00,
2013-01-22 15:02:00,24.0,20.0,28.33,NW,326,0.0,2.0,84,0.00,,,0.00,,2013-01-22 23:02:00,
2013-01-22 15:12:00,24.0,20.0,28.33,NW,326,0.0,2.0,84,0.00,,,0.00,,2013-01-22 23:12:00,
2013-01-22 15:23:00,25.0,21.0,28.32,East,82,0.0,2.0,83,0.00,,,0.00,,2013-01-22 23:23:00,
2013-01-22 15:33:00,25.0,21.0,28.32,East,88,0.0,1.0,83,0.00,,,0.00,,2013-01-22 23:33:00,
2013-01-22 15:42:00,25.0,21.0,28.32,East,88,0.0,1.0,83,0.00,,,0.00,,2013-01-22 23:42:00,
2013-01-22 15:52:00,25.0,21.0,28.31,East,89,0.0,1.0,83,0.00,,,0.00,,2013-01-22 23:52:00,
2013-01-22 16:02:00,24.0,20.0,28.31,SE,124,0.0,1.0,84,0.00,,,0.00,,2013-01-23 00:02:00,
2013-01-22 16:12:00,24.0,20.0,28.31,SE,124,0.0,1.0,84,0.00,,,0.00,,2013-01-23 00:12:00,
2013-01-22 16:22:00,25.0,21.0,28.30,SE,124,0.0,1.0,84,0.00,,,0.00,,2013-01-23 00:22:00,
2013-01-22 16:33:00,25.0,21.0,28.31,SE,124,0.0,0.0,83,0.00,,,0.00,,2013-01-23 00:33:00,
2013-01-22 16:42:00,25.0,21.0,28.31,SE,124,0.0,0.0,83,0.00,,,0.00,,2013-01-23 00:42:00,
2013-01-22 16:52:00,24.0,20.0,28.31,SE,124,0.0,0.0,84,0.00,,,0.00,,2013-01-23 00:52:00,
2013-01-22 17:02:00,24.0,20.0,28.30,SE,124,0.0,0.0,84,0.00,,,0.00,,2013-01-23 01:02:00,
2013-01-22 17:22:00,23.0,19.0,28.31,SE,124,0.0,0.0,85,0.00,,,0.00,,2013-01-23 01:22:00,
2013-01-22 17:32:00,23.0,19.0,28.30,SE,124,0.0,0.0,86,0.00,,,0.00,,2013-01-23 01:32:00,
2013-01-22 17:42:00,23.0,19.0,28.30,SE,124,0.0,0.0,86,0.00,,,0.00,,2013-01-23 01:42:00,
2013-01-22 17:52:00,23.0,20.0,28.30,SE,124,0.0,1.0,87,0.00,,,0.00,,2013-01-23 01:52:00,
2013-01-22 18:03:00,23.0,19.0,28.30,WNW,298,0.0,1.0,86,0.00,,,0.00,,2013-01-23 02:03:00,
2013-01-22 18:12:00,23.0,19.0,28.30,WNW,298,0.0,1.0,86,0.00,,,0.00,,2013-01-23 02:12:00,
2013-01-22 18:22:00,23.0,20.0,28.30,WNW,298,0.0,0.0,87,0.00,,,0.00,,2013-01-23 02:22:00,
2013-01-22 18:32:00,23.0,20.0,28.30,NW,314,0.0,2.0,87,0.00,,,0.00,,2013-01-23 02:32:00,
2013-01-22 18:42:00,23.0,20.0,28.30,NW,314,0.0,2.0,87,0.00,,,0.00,,2013-01-23 02:42:00,
2013-01-22 18:53:00,23.0,20.0,28.29,NNW,332,1.0,2.0,87,0.00,,,0.00,,2013-01-23 02:53:00,
2013-01-22 19:03:00,23.0,20.0,28.29,WNW,283,1.0,2.0,87,0.00,,,0.00,,2013-01-23 03:03:00,
2013-01-22 19:12:00,23.0,20.0,28.29,WNW,283,1.0,2.0,87,0.00,,,0.00,,2013-01-23 03:12:00,
2013-01-22 19:22:00,23.0,20.0,28.28,NW,317,1.0,2.0,87,0.00,,,0.00,,2013-01-23 03:22:00,
2013-01-22 19:32:00,23.0,20.0,28.29,NW,317,0.0,1.0,87,0.00,,,0.00,,2013-01-23 03:32:00,
2013-01-22 19:42:00,23.0,20.0,28.29,NW,317,0.0,1.0,87,0.00,,,0.00,,2013-01-23 03:42:00,
2013-01-22 19:52:00,23.0,20.0,28.29,NW,323,1.0,3.0,87,0.00,,,0.00,,2013-01-23 03:52:00,
2013-01-22 20:03:00,23.0,20.0,28.28,NW,322,0.0,3.0,87,0.00,,,0.00,,2013-01-23 04:03:00,
2013-01-22 20:12:00,23.0,20.0,28.28,NW,322,0.0,3.0,87,0.00,,,0.00,,2013-01-23 04:12:00,
2013-01-22 20:22:00,23.0,20.0,28.28,NW,305,1.0,2.0,87,0.00,,,0.00,,2013-01-23 04:22:00,
2013-01-22 20:32:00,23.0,20.0,28.28,NW,311,0.0,3.0,87,0.00,,,0.00,,2013-01-23 04:32:00,
2013-01-22 20:42:00,23.0,20.0,28.28,NW,311,0.0,3.0,87,0.00,,,0.00,,2013-01-23 04:42:00,
2013-01-22 20:52:00,23.0,20.0,28.28,WNW,302,0.0,2.0,88,0.00,,,0.00,,2013-01-23 04:52:00,
2013-01-22 21:03:00,23.0,20.0,28.28,NW,309,1.0,3.0,88,0.00,,,0.00,,2013-01-23 05:03:00,
2013-01-22 21:12:00,23.0,20.0,28.28,NW,309,1.0,3.0,88,0.00,,,0.00,,2013-01-23 05:12:00,
2013-01-22 21:22:00,23.0,20.0,28.28,North,354,1.0,2.0,88,0.00,,,0.00,,2013-01-23 05:22:00,
2013-01-22 21:33:00,23.0,20.0,28.28,NW,318,0.0,1.0,88,0.00,,,0.00,,2013-01-23 05:33:00,
2013-01-22 21:42:00,23.0,20.0,28.28,NW,318,0.0,1.0,88,0.00,,,0.00,,2013-01-23 05:42:00,
2013-01-22 21:52:00,23.0,20.0,28.28,NW,315,1.0,3.0,88,0.00,,,0.00,,2013-01-23 05:52:00,
2013-01-22 22:02:00,23.0,20.0,28.29,NNW,336,0.0,3.0,88,0.00,,,0.00,,2013-01-23 06:02:00,
2013-01-22 22:12:00,23.0,20.0,28.29,NNW,336,0.0,3.0,88,0.00,,,0.00,,2013-01-23 06:12:00,
2013-01-22 22:22:00,23.0,20.0,28.28,NNW,327,0.0,1.0,88,0.00,,,0.00,,2013-01-23 06:22:00,
2013-01-22 22:32:00,23.0,20.0,28.28,NW,304,1.0,4.0,87,0.00,,,0.00,,2013-01-23 06:32:00,
2013-01-22 22:42:00,23.0,20.0,28.28,NW,304,1.0,4.0,87,0.00,,,0.00,,2013-01-23 06:42:00,
2013-01-22 22:52:00,23.0,20.0,28.27,NNW,330,1.0,4.0,88,0.00,,,0.00,,2013-01-23 06:52:00,
2013-01-22 23:02:00,23.0,20.0,28.27,NW,321,0.0,2.0,88,0.00,,,0.00,,2013-01-23 07:02:00,
2013-01-22 23:12:00,23.0,20.0,28.27,NW,321,0.0,2.0,88,0.00,,,0.00,,2013-01-23 07:12:00,
2013-01-22 23:22:00,23.0,20.0,28.27,NW,321,0.0,1.0,88,0.00,,,0.00,,2013-01-23 07:22:00,
2013-01-22 23:33:00,23.0,20.0,28.27,NW,322,0.0,1.0,88,0.00,,,0.00,,2013-01-23 07:33:00,
2013-01-22 23:42:00,23.0,20.0,28.27,NW,322,0.0,1.0,88,0.00,,,0.00,,2013-01-23 07:42:00,
2013-01-22 23:52:00,23.0,20.0,28.27,NW,321,0.0,0.0,89,0.00,,,0.00,,2013-01-23 07:52:00,